Augusta Bush, GA

5:28 PM EDT on March 27, 2017 (GMT -0400)
Augusta Regional At Bush

Weather History for KAGS - May, 2013

Change the Weather History Date:

Monday, May 6, 2013

  Actual Average Record
Temperature  
Mean Temperature 60 °F 68 °F  
Max Temperature 70 °F 83 °F 95 °F (1952)
Min Temperature 49 °F 54 °F 42 °F (1973)
Degree Days  
Heating Degree Days 5 1  
Month to date heating degree days 16 9  
Since 1 July heating degree days 2367 2461  
Cooling Degree Days 0 4  
Month to date cooling degree days 2 23  
Year to date cooling degree days 65 96  
Growing Degree Days 9 (Base 50)    
Moisture  
Dew Point 48 °F    
Average Humidity 67    
Maximum Humidity 93    
Minimum Humidity 40    
Precipitation  
Precipitation 0.00 in 0.07 in 1.98 in (1928)
Month to date precipitation 1.87 0.45  
Year to date precipitation 19.21 15.30  
Sea Level Pressure  
Sea Level Pressure 29.89 in    
Wind  
Wind Speed 5 mph (WSW)    
Max Wind Speed 17 mph    
Max Gust Speed 23 mph    
Visibility 10 miles    
Events      
T = Trace of Precipitation, MM = Missing Value Source: NWS Daily Summary

Daily Weather History Graph

Daily Weather History Graph

Search for Another Location

Airport or City:

Trip Planner

Search our weather history database for the weather conditions in past years. The results will help you decide how hot, cold, wet, or windy it might be!

Date:

Astronomy

May. 06, 2013 Rise Set
Actual Time 6:34 AM EDT 8:14 PM EDT
Civil Twilight 6:07 AM EDT 8:41 PM EDT
Nautical Twilight 5:35 AM EDT 9:13 PM EDT
Astronomical Twilight 5:01 AM EDT 9:47 PM EDT
Moon 4:26 AM EDT (5/6) 5:21 PM EDT (5/6)
Length of Visible Light 14h 33m
Length of Day
13h 39m
Waning Crescent, 11% of the Moon is Illuminated
May 6
Waning Crescent
May 9
New
May 18
First Quarter
May 25
Full
May 31
Last Quarter

Hourly Weather History & Observations

Time (EDT) Temp. Dew Point Humidity Pressure Visibility Wind Dir Wind Speed Gust Speed Precip Events Conditions
12:53 AM 55.0 °F 53.1 °F 93% 29.82 in 10.0 mi SSE 3.5 mph - N/A   Overcast
1:53 AM 55.9 °F 51.1 °F 84% 29.83 in 10.0 mi SW 4.6 mph - N/A   Clear
2:53 AM 54.0 °F 52.0 °F 93% 29.83 in 10.0 mi Calm Calm - N/A   Mostly Cloudy
3:53 AM 50.0 °F 48.9 °F 96% 29.83 in 6.0 mi SW 3.5 mph - N/A   Scattered Clouds
4:53 AM 52.0 °F 48.9 °F 89% 29.84 in 10.0 mi Calm Calm - N/A   Clear
5:53 AM 50.0 °F 48.0 °F 93% 29.86 in 10.0 mi Calm Calm - N/A   Clear
6:53 AM 50.0 °F 46.9 °F 89% 29.88 in 10.0 mi West 4.6 mph - N/A   Clear
7:53 AM 51.1 °F 48.0 °F 89% 29.90 in 10.0 mi West 4.6 mph - N/A   Clear
8:53 AM 54.0 °F 48.0 °F 80% 29.91 in 10.0 mi WSW 3.5 mph - N/A   Clear
9:53 AM 54.0 °F 46.0 °F 75% 29.93 in 10.0 mi West 8.1 mph - N/A   Clear
10:53 AM 59.0 °F 46.0 °F 62% 29.94 in 10.0 mi West 5.8 mph - N/A   Clear
11:53 AM 63.0 °F 48.0 °F 58% 29.93 in 10.0 mi Variable 3.5 mph - N/A   Clear
12:53 PM 66.0 °F 46.9 °F 50% 29.92 in 10.0 mi Variable 5.8 mph - N/A   Partly Cloudy
1:53 PM 66.0 °F 46.0 °F 48% 29.90 in 10.0 mi WNW 6.9 mph - N/A   Scattered Clouds
2:53 PM 69.1 °F 45.0 °F 42% 29.89 in 10.0 mi WSW 5.8 mph 17.3 mph N/A   Partly Cloudy
3:53 PM 69.1 °F 45.0 °F 42% 29.88 in 10.0 mi West 12.7 mph 18.4 mph N/A   Partly Cloudy
4:53 PM 66.9 °F 45.0 °F 45% 29.88 in 10.0 mi WSW 13.8 mph - N/A   Clear
5:53 PM 64.9 °F 46.0 °F 50% 29.88 in 10.0 mi WSW 9.2 mph 18.4 mph N/A   Clear
6:53 PM 63.0 °F 45.0 °F 52% 29.89 in 10.0 mi West 9.2 mph - N/A   Clear
7:53 PM 61.0 °F 46.0 °F 58% 29.90 in 10.0 mi WSW 4.6 mph - N/A   Clear
8:53 PM 59.0 °F 46.9 °F 64% 29.91 in 10.0 mi West 3.5 mph - N/A   Clear
9:53 PM 55.9 °F 46.9 °F 72% 29.93 in 10.0 mi West 4.6 mph - N/A   Clear
10:53 PM 53.1 °F 48.0 °F 83% 29.94 in 10.0 mi Calm Calm - N/A   Mostly Cloudy
11:53 PM 50.0 °F 48.0 °F 93% 29.94 in 10.0 mi Calm Calm - N/A   Clear